Location: Zengebe
(1.4833°N, 32.5167°E)
Time: 22:47:05
(UTC+00:00)

GPS 2-14 Rocket1 - Pass Details

Date: 07 June 2020
Orbit: 476 x 541 km, 20.7° (Epoch: 10 July)

Event Time Altitude Azimuth Distance (km) Brightness Sun altitude
Exits shadow 03:02:21 13° 229° (SW) 1,489 4.4 -10.1°
Maximum altitude 03:03:58 16° 200° (SSW) 1,327 4.4 -9.7°
Drops below altitude 10° 03:06:23 10° 161° (SSE) 1,647 5.2 -9.2°
Sets 03:09:14 0° 138° (SE) 2,518 6.4 -8.5°
